Change the Weather History Date:

Saturday, October 20, 2012

  Actual Average (KN60) Record (KN60)
Temperature  
Mean Temperature 49 °F -  
Max Temperature 68 °F 50 °F 72 °F (2014)
Min Temperature 30 °F 29 °F 21 °F (1997)
Degree Days  
Heating Degree Days 16    
Moisture  
Dew Point 36 °F    
Average Humidity 67    
Maximum Humidity 93    
Minimum Humidity 33    
Precipitation  
Precipitation 0.00 in - - ()
Sea Level Pressure  
Sea Level Pressure 29.56 in    
Wind  
Wind Speed 3 mph (SSW)    
Max Wind Speed 15 mph    
Max Gust Speed 18 mph    
Visibility 10 miles    
Events Rain    
Averages and records for this station are not official NWS values.
T = Trace of Precipitation, MM = Missing Value Source: NWS Daily Summary

Daily Weather History Graph

Daily Weather History Graph

Search for Another Location

Airport or City:

Trip Planner

Search our weather history database for the weather conditions in past years. The results will help you decide how hot, cold, wet, or windy it might be!

Date:

Astronomy

Oct. 20, 2012 Rise Set
Actual Time 8:12 AM CDT 6:48 PM CDT
Civil Twilight 7:41 AM CDT 7:19 PM CDT
Nautical Twilight 7:05 AM CDT 7:55 PM CDT
Astronomical Twilight 6:30 AM CDT 8:30 PM CDT
Moon 2:02 PM CDT (10/20) 11:26 PM CDT (10/20)
Length of Visible Light 11h 38m
Length of Day
10h 35m
Waxing Crescent, 34% of the Moon is Illuminated
Oct 20
Waxing Crescent
Oct 21
First Quarter
Oct 29
Full
Nov 6
Last Quarter
Nov 13
New

Hourly Weather History & Observations

Time (CDT) Temp. Windchill Dew Point Humidity Pressure Visibility Wind Dir Wind Speed Gust Speed Precip Events Conditions
12:15 AM 39.2 °F - 32.0 °F 75% 29.63 in 10.0 mi Calm Calm - N/A   Clear
12:35 AM 39.2 °F 35.0 °F 32.0 °F 75% 29.63 in 10.0 mi SSW 5.8 mph - N/A   Clear
12:55 AM 39.2 °F 35.0 °F 32.0 °F 75% 29.62 in 10.0 mi SSW 5.8 mph - N/A   Clear
1:15 AM 39.2 °F 37.0 °F 32.0 °F 75% 29.62 in 10.0 mi SW 3.5 mph - N/A   Clear
1:35 AM 39.2 °F 37.0 °F 32.0 °F 75% 29.62 in 10.0 mi WSW 3.5 mph - N/A   Clear
1:55 AM 39.2 °F 35.9 °F 30.2 °F 70% 29.62 in 10.0 mi SSW 4.6 mph - N/A   Clear
2:15 AM 37.4 °F 34.9 °F 30.2 °F 75% 29.61 in 10.0 mi WSW 3.5 mph - N/A   Clear
2:35 AM 37.4 °F - 28.4 °F 70% 29.61 in 10.0 mi Calm Calm - N/A   Clear
2:55 AM 33.8 °F 30.8 °F 28.4 °F 81% 29.60 in 10.0 mi SSE 3.5 mph - N/A   Clear
3:15 AM 32.0 °F 28.7 °F 28.4 °F 87% 29.59 in 10.0 mi SSE 3.5 mph - N/A   Clear
3:35 AM 37.4 °F 34.9 °F 28.4 °F 70% 29.59 in 10.0 mi SSW 3.5 mph - N/A   Clear
3:55 AM 35.6 °F 32.8 °F 28.4 °F 75% 29.59 in 10.0 mi SW 3.5 mph - N/A   Clear
4:15 AM 33.8 °F 30.8 °F 28.4 °F 81% 29.59 in 10.0 mi SW 3.5 mph - N/A   Clear
4:35 AM 32.0 °F - 28.4 °F 87% 29.58 in 10.0 mi Calm Calm - N/A   Clear
4:55 AM 32.0 °F - 26.6 °F 80% 29.58 in 10.0 mi Calm Calm - N/A   Clear
5:15 AM 32.0 °F - 28.4 °F 87% 29.58 in 10.0 mi Calm Calm - N/A   Clear
5:35 AM 30.2 °F 25.4 °F 28.4 °F 93% 29.56 in 10.0 mi North 4.6 mph - N/A   Scattered Clouds
5:55 AM 32.0 °F - 26.6 °F 80% 29.56 in 10.0 mi Calm Calm - N/A   Clear
6:15 AM 32.0 °F - 26.6 °F 80% 29.56 in 10.0 mi Calm Calm - N/A   Clear
6:35 AM 32.0 °F - 28.4 °F 87% 29.57 in 10.0 mi Calm Calm - N/A   Clear
6:55 AM 32.0 °F - 28.4 °F 87% 29.57 in 10.0 mi Calm Calm - N/A   Clear
7:15 AM 32.0 °F - 30.2 °F 93% 29.57 in 10.0 mi Calm Calm - N/A   Clear
7:35 AM 32.0 °F - 30.2 °F 93% 29.56 in 10.0 mi Calm Calm - N/A   Clear
7:55 AM 33.8 °F - 32.0 °F 93% 29.55 in 10.0 mi Calm Calm - N/A   Clear
8:15 AM 33.8 °F - 32.0 °F 93% 29.56 in 10.0 mi Calm Calm - N/A   Clear
8:35 AM 33.8 °F - 32.0 °F 93% 29.56 in 10.0 mi Calm Calm - N/A   Clear
8:55 AM 35.6 °F - 32.0 °F 87% 29.55 in 10.0 mi Calm Calm - N/A   Clear
9:15 AM 35.6 °F - 32.0 °F 87% 29.55 in 10.0 mi Calm Calm - N/A   Clear
9:35 AM 37.4 °F 34.9 °F 32.0 °F 81% 29.55 in 10.0 mi NNE 3.5 mph - N/A   Partly Cloudy
9:55 AM 39.2 °F - 32.0 °F 75% 29.55 in 10.0 mi Calm Calm - N/A   Scattered Clouds
10:15 AM 42.8 °F - 32.0 °F 66% 29.55 in 10.0 mi Calm Calm - N/A   Partly Cloudy
10:35 AM 44.6 °F - 32.0 °F 61% 29.55 in 10.0 mi Calm Calm - N/A   Clear
10:55 AM 46.4 °F 45.2 °F 33.8 °F 62% 29.54 in 10.0 mi ENE 3.5 mph - N/A   Mostly Cloudy
11:15 AM 50.0 °F - 35.6 °F 58% 29.54 in 10.0 mi NE 5.8 mph - N/A   Partly Cloudy
11:35 AM 51.8 °F - 35.6 °F 54% 29.54 in 10.0 mi NE 4.6 mph - N/A   Clear
11:55 AM 55.4 °F - 35.6 °F 47% 29.54 in 10.0 mi East 4.6 mph - N/A   Clear
12:15 PM 57.2 °F - 35.6 °F 44% 29.53 in 10.0 mi NE 4.6 mph - N/A   Clear
12:35 PM 57.2 °F - 35.6 °F 44% 29.53 in 10.0 mi NE 4.6 mph - N/A   Clear
12:55 PM 59.0 °F - 35.6 °F 42% 29.53 in 10.0 mi NE 4.6 mph - N/A   Partly Cloudy
1:15 PM 59.0 °F - 37.4 °F 45% 29.53 in 10.0 mi NE 4.6 mph - N/A   Scattered Clouds
1:35 PM 59.0 °F - 37.4 °F 45% 29.53 in 10.0 mi NE 4.6 mph - N/A   Mostly Cloudy
1:55 PM 60.8 °F - 37.4 °F 42% 29.53 in 10.0 mi Calm Calm - N/A   Scattered Clouds
2:15 PM 62.6 °F - 37.4 °F 39% 29.52 in 10.0 mi NE 3.5 mph - N/A   Clear
2:35 PM 64.4 °F - 37.4 °F 37% 29.52 in 10.0 mi Calm Calm - N/A   Clear
2:55 PM 64.4 °F - 37.4 °F 37% 29.52 in 10.0 mi Calm Calm - N/A   Scattered Clouds
3:15 PM 64.4 °F - 39.2 °F 40% 29.53 in 10.0 mi Calm Calm - N/A   Partly Cloudy
3:35 PM 64.4 °F - 37.4 °F 37% 29.52 in 10.0 mi Calm Calm - N/A   Scattered Clouds
3:55 PM 66.2 °F - 39.2 °F 37% 29.52 in 10.0 mi SW 11.5 mph 17.3 mph N/A   Overcast
4:15 PM 66.2 °F - 37.4 °F 35% 29.52 in 10.0 mi WSW 10.4 mph - N/A   Mostly Cloudy
4:35 PM 68.0 °F - 37.4 °F 33% 29.51 in 10.0 mi SW 10.4 mph - N/A   Clear
4:55 PM 66.2 °F - 39.2 °F 37% 29.51 in 10.0 mi SW 6.9 mph - N/A   Clear
5:15 PM 66.2 °F - 37.4 °F 35% 29.51 in 10.0 mi West 4.6 mph - N/A   Clear
5:35 PM 64.4 °F - 39.2 °F 40% 29.51 in 10.0 mi SW 3.5 mph - N/A   Clear
5:55 PM 60.8 °F - 39.2 °F 45% 29.52 in 10.0 mi SW 4.6 mph - N/A   Scattered Clouds
6:15 PM 59.0 °F - 39.2 °F 48% 29.53 in 10.0 mi West 4.6 mph - N/A   Overcast
6:35 PM 57.2 °F - 39.2 °F 51% 29.55 in 10.0 mi SSW 9.2 mph - N/A   Overcast
6:55 PM 59.0 °F - 39.2 °F 48% 29.56 in 10.0 mi SW 5.8 mph - N/A   Overcast
7:15 PM 59.0 °F - 39.2 °F 48% 29.58 in 10.0 mi SW 8.1 mph - N/A   Overcast
7:35 PM 59.0 °F - 46.4 °F 63% 29.60 in 10.0 mi SSW 12.7 mph 18.4 mph N/A Rain Light Rain
7:55 PM 55.4 °F - 48.2 °F 77% 29.61 in 10.0 mi SSW 10.4 mph - N/A Rain Light Rain
8:15 PM 53.6 °F - 50.0 °F 88% 29.61 in 6.0 mi South 13.8 mph - N/A Rain Light Rain
8:35 PM 53.6 °F - 50.0 °F 88% 29.59 in 10.0 mi SSE 15.0 mph - N/A Rain Light Rain
8:55 PM 53.6 °F - 48.2 °F 82% 29.58 in 10.0 mi SSE 9.2 mph - N/A   Overcast
9:15 PM 53.6 °F - 48.2 °F 82% 29.58 in 10.0 mi SSE 9.2 mph - N/A   Overcast
9:35 PM 53.6 °F - 48.2 °F 82% 29.58 in 10.0 mi SSE 8.1 mph - N/A   Overcast
9:55 PM 51.8 °F - 48.2 °F 88% 29.59 in 10.0 mi Calm Calm - N/A   Overcast
10:15 PM 53.6 °F - 46.4 °F 77% 29.59 in 10.0 mi West 3.5 mph - N/A   Overcast
10:35 PM 51.8 °F - 48.2 °F 88% 29.61 in 10.0 mi West 3.5 mph - N/A   Overcast
10:55 PM 51.8 °F - 48.2 °F 88% 29.61 in 10.0 mi WNW 4.6 mph - N/A Rain Light Rain
11:55 PM 53.6 °F - 46.4 °F 77% 29.63 in 9.0 mi South 11.5 mph - N/A   Overcast